Date String (YYYY-MM-DD hh:mm:ss) UTC,Instrument flags,Ambient pressure (hPa),Sample flow (lpm),Bypass flow (lpm),Sample temperature (°C),Ambient temperature (°C),ASC tube jacket temperature (°C),LED temperature (°C),Box temperature (°C),Sample RH (%),Mass concentration (μg/m³),Mass concentration (μg/m³)
DateTimeUTC,F1_M11,P_M11,Q1_M11,Q2_M11,T1_M11,T2_M11,T3_M11,T4_M11,T5_M11,U1_M11,X0_M11,X2_M11
2021-08-14 15:00:00,,0834.7,4.99,0.00,30.7,27.4,00.0,39.0,31.5,34.2,0019.86,0009.51
2021-08-14 15:01:00,,0834.7,5.00,0.00,30.7,27.7,00.0,39.0,31.5,33.6,0019.93,0009.51
2021-08-14 15:02:00,,0834.7,5.00,0.00,30.8,28.0,00.0,39.1,31.6,33.6,0020.62,0009.54
2021-08-14 15:03:00,,0834.7,4.99,0.00,30.8,28.2,00.0,39.1,31.7,33.3,0021.37,0009.60
2021-08-14 15:04:00,,0834.7,5.01,0.00,30.8,28.4,00.0,39.2,31.7,33.4,0021.60,0009.57
2021-08-14 15:05:00,,0834.7,5.01,0.00,30.8,28.6,00.0,39.2,31.7,32.9,0020.67,0009.50
2021-08-14 15:06:00,,0834.7,4.99,0.00,30.8,28.7,00.0,39.3,31.8,33.1,0020.90,0009.53
2021-08-14 15:07:00,,0834.6,5.01,0.00,30.8,28.8,00.0,39.3,31.9,32.5,0021.71,0009.58
2021-08-14 15:08:00,,0834.7,4.99,0.00,30.8,28.9,00.0,39.4,31.9,32.3,0022.20,0009.62
2021-08-14 15:09:00,,0834.7,5.01,0.00,30.8,28.7,00.0,39.4,31.9,33.0,0022.20,0009.60
2021-08-14 15:10:00,,0834.7,4.99,0.00,30.7,27.3,00.0,39.4,31.5,33.1,0020.81,0009.55
2021-08-14 15:11:00,,0834.7,5.00,0.00,30.6,26.4,00.0,39.4,31.2,32.8,0021.87,0009.53
2021-08-14 15:12:00,,0834.6,5.00,0.00,30.5,26.5,00.0,39.4,31.3,32.9,0021.84,0009.49
2021-08-14 15:13:00,,0834.7,5.01,0.00,30.4,26.9,00.0,39.3,31.3,33.0,0021.97,0009.51
2021-08-14 15:14:00,,0834.6,4.99,0.00,30.3,27.3,00.0,39.3,31.4,33.0,0020.88,0009.48
2021-08-14 15:15:00,,0834.5,5.00,0.00,30.3,27.6,00.0,39.3,31.4,33.1,0020.54,0009.47
2021-08-14 15:16:00,,0834.6,5.01,0.00,30.3,27.9,00.0,39.3,31.5,33.1,0020.40,0009.62
2021-08-14 15:17:00,,0834.5,5.01,0.00,30.3,28.2,00.0,39.2,31.6,32.3,0019.83,0009.64
2021-08-14 15:18:00,,0834.6,5.00,0.00,30.3,28.4,00.0,39.2,31.7,32.5,0019.62,0009.72
2021-08-14 15:19:00,,0834.6,5.00,0.00,30.3,28.5,00.0,39.2,31.7,32.5,0019.59,0009.74
2021-08-14 15:20:00,,0834.6,5.01,0.00,30.4,28.7,00.0,39.2,31.7,32.2,0019.27,0009.79
2021-08-14 15:21:00,,0834.6,4.99,0.00,30.4,28.8,00.0,39.3,31.8,32.3,0019.62,0009.89
2021-08-14 15:22:00,,0834.6,5.01,0.00,30.4,28.4,00.0,39.3,31.7,32.1,0018.78,0009.92
2021-08-14 15:23:00,,0834.6,4.99,0.00,30.3,26.9,00.0,39.2,31.3,32.1,0018.83,0010.03
2021-08-14 15:24:00,,0834.6,5.00,0.00,30.1,26.3,00.0,39.2,31.1,31.9,0019.97,0010.10
2021-08-14 15:25:00,,0834.5,5.01,0.00,30.0,26.5,00.0,39.2,31.2,31.6,0020.52,0010.16
2021-08-14 15:26:00,,0834.5,5.00,0.00,30.0,26.9,00.0,39.1,31.2,32.0,0020.65,0010.20
2021-08-14 15:27:00,,0834.4,5.00,0.00,30.0,27.3,00.0,39.1,31.3,32.5,0020.72,0010.17
2021-08-14 15:28:00,,0834.4,5.01,0.00,29.9,27.6,00.0,39.0,31.4,32.7,0021.08,0010.21
2021-08-14 15:29:00,,0834.4,5.00,0.00,30.0,27.9,00.0,39.0,31.4,32.6,0021.26,0010.16
2021-08-14 15:30:00,,0834.4,4.99,0.00,30.0,28.2,00.0,39.0,31.5,32.8,0021.30,0010.15
2021-08-14 15:31:00,,0834.4,5.00,0.00,30.0,28.4,00.0,39.0,31.6,33.2,0022.64,0010.21
2021-08-14 15:32:00,,0834.4,4.99,0.00,30.0,28.5,00.0,39.0,31.6,33.2,0023.63,0010.17
2021-08-14 15:33:00,,0834.4,5.01,0.00,30.1,28.6,00.0,39.0,31.7,33.3,0023.82,0010.14
2021-08-14 15:34:00,,0834.4,5.01,0.00,30.1,28.7,00.0,39.0,31.7,33.8,0024.72,0010.11
2021-08-14 15:35:00,,0834.4,4.99,0.00,30.1,28.7,00.0,39.0,31.7,33.9,0024.57,0010.05
2021-08-14 15:36:00,,0834.4,5.00,0.00,30.0,27.4,00.0,39.0,31.3,34.1,0023.90,0010.02
2021-08-14 15:37:00,,0834.4,5.00,0.00,29.9,26.3,00.0,39.0,31.0,34.2,0024.25,0010.08
2021-08-14 15:38:00,,0834.4,5.00,0.00,29.8,26.4,00.0,39.0,31.1,34.2,0024.33,0010.10
2021-08-14 15:39:00,,0834.4,5.01,0.00,29.8,26.8,00.0,38.9,31.1,34.6,0024.47,0010.02
2021-08-14 15:40:00,,0834.4,5.00,0.00,29.7,27.2,00.0,38.9,31.2,34.9,0024.39,0010.09
2021-08-14 15:41:00,,0834.3,4.99,0.00,29.8,27.6,00.0,38.9,31.3,34.9,0024.66,0010.07
2021-08-14 15:42:00,,0834.3,5.00,0.00,29.9,27.8,00.0,38.9,31.4,34.4,0024.27,0009.98
2021-08-14 15:43:00,,0834.4,5.00,0.00,30.0,28.1,00.0,38.9,31.5,34.2,0023.91,0009.95
2021-08-14 15:44:00,,0834.4,5.01,0.00,30.0,28.3,00.0,38.9,31.6,34.1,0023.64,0010.01
2021-08-14 15:45:00,,0834.3,5.00,0.00,30.1,28.5,00.0,38.9,31.6,33.7,0024.07,0009.99
2021-08-14 15:46:00,,0834.3,5.00,0.00,30.1,28.6,00.0,38.9,31.7,33.7,0022.57,0010.00
2021-08-14 15:47:00,,0834.3,4.99,0.00,30.1,28.7,00.0,38.9,31.7,34.0,0022.58,0010.02
2021-08-14 15:48:00,,0834.3,5.00,0.00,30.1,28.5,00.0,39.0,31.6,34.3,0022.73,0010.02
2021-08-14 15:49:00,,0834.3,5.01,0.00,30.1,27.1,00.0,39.0,31.2,34.4,0023.88,0010.05
2021-08-14 15:50:00,,0834.3,5.00,0.00,30.0,26.4,00.0,38.9,31.0,34.5,0024.43,0010.06
2021-08-14 15:51:00,,0834.3,4.98,0.00,29.9,26.5,00.0,38.9,31.1,34.7,0025.31,0010.06
2021-08-14 15:52:00,,0834.3,5.02,0.00,29.8,26.9,00.0,38.9,31.2,34.8,0024.74,0010.10
2021-08-14 15:53:00,,0834.3,4.97,0.00,29.8,27.3,00.0,38.9,31.2,34.9,0023.85,0010.13
2021-08-14 15:54:00,,0834.3,5.00,0.00,29.9,27.6,00.0,38.8,31.3,35.0,0023.66,0010.17
2021-08-14 15:55:00,,0834.3,5.01,0.00,30.0,27.9,00.0,38.8,31.5,34.4,0025.42,0010.17
2021-08-14 15:56:00,,0834.3,5.01,0.00,30.1,28.1,00.0,38.8,31.6,34.2,0025.30,0010.23
2021-08-14 15:57:00,,0834.4,4.99,0.00,30.2,28.4,00.0,38.9,31.6,34.2,0025.53,0010.27
2021-08-14 15:58:00,,0834.3,5.00,0.00,30.3,28.5,00.0,38.9,31.7,34.2,0025.97,0010.32
2021-08-14 15:59:00,,0834.4,5.01,0.00,30.3,28.7,00.0,38.9,31.7,34.1,0025.62,0010.32
